Regional Weather Roundup
Issued by NWS

Home | Current Version | Previous Version | Text Only | Print | Product List | Glossary On
Versions: 1 2 3 4 5 6 7 8 9 10 11 12 13 14 15 16 17 18 19 20 21 22 23 24 25 26 27 28 29 30 31 32 33 34 35 36 37 38 39 40 41 42 43 44 45 46 47 48 49 50
000
ASUS43 KDTX 051010
RWRMI
MICHIGAN HOURLY REGIONAL WEATHER ROUNDUP
NATIONAL WEATHER SERVICE DETROIT/PONTIAC MI
600 AM EDT THU MAY 05 2016

NOTE: "FAIR" INDICATES FEW OR NO CLOUDS BELOW 12,000 FEET WITH NO
SIGNIFICANT WEATHER AND/OR OBSTRUCTION TO VISIBILITY.

MIZ047>049-052>055-059>063-066>070-074>076-081>083-051100-
SOUTHEAST LOWER MICHIGAN

CITY           SKY/WX    TMP DP  RH WIND       PRES   REMARKS
ADRIAN         CLOUDY    46  43  89 N14       29.77R
ALMA           MOCLDY    42  41  97 N8        29.85S
ANN ARBOR      CLEAR     44  42  93 N13       29.77R
BAD AXE        CLEAR     40  40  99 N8        29.84R WCI  35
CARO           PTCLDY    42  40  95 N5        29.83R
DETROIT CITY   CLOUDY    43  39  86 N10       29.77R
DETROIT        CLOUDY    44  41  89 N10       29.76R FOG
FLINT          MOCLDY    46  41  82 N8        29.82R
GROSSE ILE     CLEAR     45  43  93 N9        29.74R
HILLSDALE      CLOUDY    45  42  90 N13       29.78R
HOWELL         CLOUDY    46  44  93 N8        29.80S

CITY           SKY/WX    TMP DP  RH WIND       PRES   REMARKS
JACKSON        CLOUDY    46  42  86 N12       29.80R
LAMBERTVILLE   CLOUDY    48  45  90 N8        29.75R
LANSING        CLOUDY    45  42  89 NE13      29.84R
LAPEER         FAIR      41  40  95 N3        29.81R
MASON          CLOUDY    45  42  91 N9        29.82R
MONROE         CLOUDY    46  44  93 N9        29.75R
MT. CLEMENS    CLEAR     42  42  99 N12       29.76R
PONTIAC        PTCLDY    42  40  92 N7        29.78R
PORT HOPE        N/A     43  41  93 NW9       29.82R
PORT HURON     CLEAR     43  39  87 N6        29.78R
TRI CITIES     CLEAR     44  41  89 N9        29.85R
MIDLAND        FAIR      42  41  97 N5        29.85R
TROY           PTCLDY    44  42  91 N8        29.79S
SAGINAW HB     CLEAR     45  41  87 N6        29.84R
$$
MIZ043>046-050>051-056>058-064>065-071>073-077>080-051100-
SOUTHWEST LOWER MICHIGAN

CITY           SKY/WX    TMP DP  RH WIND       PRES   REMARKS
BATTLE CREEK   CLOUDY    45  41  86 NE14      29.83R
BENTON HARBOR  CLOUDY    44  40  85 N8        29.85R
BIG RAPIDS     CLEAR     38  36  89 N6        29.87R WCI  34
COLDWATER      CLOUDY    46  44  94 N14G21    29.79R
FREMONT        FAIR      38  37  96 N6        29.88R WCI  33
HOLLAND        PTCLDY   N/A N/A N/A N6        29.87R
GRAND RAPIDS   CLOUDY    44  41  89 N7        29.86R
IONIA          CLOUDY    44  41  91 N8        29.84S
KALAMAZOO      CLOUDY    46  41  82 N12       29.83R
LUDINGTON      CLEAR     37  35  92 CALM      29.92R
MARSHALL       CLOUDY    45  42  90 N3        29.81R
MOUNT PLEASANT   N/A     42  40  94 N3        29.86R
MUSKEGON       MOCLDY    41  35  79 N9        29.88S
SOUTH HAVEN    CLOUDY    43  41  93 N5        29.85R
$$
MIZ016>042-051100-
NORTHERN LOWER MICHIGAN

CITY           SKY/WX    TMP DP  RH WIND       PRES   REMARKS
ALPENA         PTCLDY    40  39  97 NW5       29.89R
BEAVER ISLAND  CLEAR     37  35  96 NW3       29.95R
BELLAIRE       CLOUDY    42  38  85 CALM      29.92S
CADILLAC       CLOUDY    38  37  96 N5        29.88S WCI  34
CHARLEVOIX     CLEAR     38  37  98 CALM      29.96R
FRANKFORT      CLEAR     38  37  94 CALM      29.93S
GAYLORD        CLOUDY    42  39  89 VRB3      29.90R
GRAYLING       CLOUDY    43  41  93 VRB6      29.90R
HARBOR SPRINGS CLEAR     39  37  94 CALM      29.92S
HOUGHTON LAKE  CLOUDY    42  40  92 N8        29.88S
MANISTEE       CLOUDY    37  30  75 N3        29.93R
OSCODA         CLEAR     42  40  94 N8        29.86R
PELLSTON       CLEAR     32  31  96 W3        29.93R
ROGERS CITY    PTCLDY    41  39  93 NW8       29.92R
TRAVERSE CITY  MOCLDY    41  36  82 N5        29.92R
$$
MIZ007>008-015-051100-
EASTERN UPPER MICHIGAN

CITY           SKY/WX    TMP DP  RH WIND       PRES   REMARKS
KINROSS          N/A     39  39 100 NW5       29.92S
MACKINAC ISLAN CLEAR     39  39 100 N6        29.92S WCI  35
NEWBERRY       CLEAR     33  33  96 NW6       29.94S WCI  28
S. S. MARIE    CLEAR     41  38  89 N3        29.92S
MUNISING         N/A     36  34  92 NW6       29.98R WCI  31
$$
MIZ004>006-011>014-085-051100-
CENTRAL UPPER MICHIGAN

CITY           SKY/WX    TMP DP  RH WIND       PRES   REMARKS
MANISTIQUE     CLEAR     32  31  97 N6        29.96R WCI  26
ESCANABA       CLEAR     34  30  86 N5        29.99R WCI  30
MENOMINEE      CLEAR     34  30  86 N3        30.00S
SAWYER-GWINN   CLEAR     31  29  94 N7        29.96S WCI  24
$$
MIZ001>003-009>011-084-051100-
WESTERN UPPER MICHIGAN

CITY           SKY/WX    TMP DP  RH WIND       PRES   REMARKS
IRON MOUNTAIN  CLOUDY    28  24  85 CALM      29.98R
HOUGHTON       CLEAR     30  27  88 NW7       29.99S WCI  23
COPPER HARBOR    N/A     32  31  96 SW5       30.00S WCI  27
IRONWOOD         N/A     30  28  93 CALM      29.98S
$$

ABBREVIATIONS USED IN REMARKS
   TC - TEMPERATURE IN CELSIUS
  WCI - WIND CHILL INDEX
   HX - HEAT INDEX
  VSB - VISIBILITY





USA.gov is the U.S. government's official web portal to all federal, state and local government web resources and services.